Tomahawk, WI

4:36 AM CST on February 12, 2016 (GMT -0600)
Tomahawk

Weather History for KTKV - March, 2013

Change the Weather History Date:

Sunday, March 31, 2013

  Actual Average (KRHI) Record (KRHI)
Temperature  
Mean Temperature 29 °F 34 °F  
Max Temperature 35 °F 45 °F 75 °F (1986)
Min Temperature 23 °F 24 °F -17 °F (1923)
Degree Days  
Heating Degree Days 36 31  
Month to date heating degree days 1172  
Since 1 July heating degree days 7795  
Cooling Degree Days 0 0  
Month to date cooling degree days 0  
Year to date cooling degree days 0  
Moisture  
Dew Point 24 °F    
Average Humidity 79    
Maximum Humidity 100    
Minimum Humidity 44    
Precipitation  
Precipitation 0.00 in 0.06 in 0.89 in (2005)
Month to date precipitation 1.57  
Year to date precipitation 3.61  
Snow  
Snow 0.00 in - 7.00 in (2008)
Month to date snowfall  
Since 1 July snowfall  
Snow Depth -    
Sea Level Pressure  
Sea Level Pressure 29.72 in    
Wind  
Wind Speed 6 mph (WNW)    
Max Wind Speed 17 mph    
Max Gust Speed 31 mph    
Visibility 7 miles    
Events Fog , Snow    
T = Trace of Precipitation, MM = Missing Value Source: NWS Daily Summary

Daily Weather History Graph

Daily Weather History Graph

Search for Another Location

Airport or City:

Trip Planner

Search our weather history database for the weather conditions in past years. The results will help you decide how hot, cold, wet, or windy it might be!

Date:

Astronomy

Mar. 31, 2013 Rise Set
Actual Time 6:40 AM CDT 7:26 PM CDT
Civil Twilight 6:11 AM CDT 7:56 PM CDT
Nautical Twilight 5:35 AM CDT 8:32 PM CDT
Astronomical Twilight 4:58 AM CDT 9:09 PM CDT
Moon No Moon Rise 9:16 AM CDT (3/31)
Length of Visible Light 13h 45m
Length of Day
12h 45m
Waning Gibbous, 77% of the Moon is Illuminated
Mar 31
Waning Gibbous
Apr 2
Last Quarter
Apr 10
New
Apr 18
First Quarter
Apr 25
Full

Hourly Weather History & Observations

Time (CDT) Temp. Windchill Dew Point Humidity Pressure Visibility Wind Dir Wind Speed Gust Speed Precip Events Conditions
12:15 AM 32.0 °F - 30.2 °F 93% 29.75 in 0.2 mi Calm Calm - N/A Fog Light Freezing Fog
12:35 AM 32.0 °F - 30.2 °F 93% 29.74 in 0.2 mi Calm Calm - N/A Fog Light Freezing Fog
12:55 AM 32.0 °F - 30.2 °F 93% 29.73 in 0.2 mi Calm Calm - N/A Fog Light Freezing Fog
1:15 AM 32.0 °F - 30.2 °F 93% 29.73 in 0.8 mi Calm Calm - N/A   Mostly Cloudy
1:35 AM 32.0 °F - 30.2 °F 93% 29.72 in 1.8 mi Calm Calm - N/A   Mist
1:55 AM 28.4 °F - 28.4 °F 100% 29.71 in 0.5 mi Calm Calm - N/A Fog Light Freezing Fog
2:15 AM 28.4 °F - 28.4 °F 100% 29.71 in 1.0 mi Calm Calm - N/A   Overcast
2:35 AM 32.0 °F 27.5 °F 30.2 °F 93% 29.71 in 1.0 mi West 4.6 mph - N/A   Overcast
2:55 AM 32.0 °F 27.5 °F 32.0 °F 100% 29.70 in 1.5 mi West 4.6 mph - N/A   Overcast
3:15 AM 32.0 °F 26.4 °F 32.0 °F 100% 29.70 in 2.0 mi West 5.8 mph - N/A   Overcast
3:35 AM 32.0 °F - 32.0 °F 100% 29.70 in 2.5 mi Calm Calm - N/A   Overcast
3:55 AM 32.0 °F 28.7 °F 30.2 °F 93% 29.69 in 2.5 mi West 3.5 mph - N/A   Mostly Cloudy
4:15 AM 32.0 °F - 32.0 °F 100% 29.68 in 2.5 mi Calm Calm - N/A   Scattered Clouds
4:35 AM 32.0 °F - 32.0 °F 100% 29.67 in 3.0 mi Calm Calm - N/A   Mostly Cloudy
4:55 AM 32.0 °F - 30.2 °F 93% 29.67 in 2.5 mi Calm Calm - N/A   Mostly Cloudy
5:15 AM 32.0 °F - 30.2 °F 93% 29.66 in 3.0 mi Calm Calm - N/A   Scattered Clouds
5:35 AM 30.2 °F 26.7 °F 30.2 °F 100% 29.67 in 3.0 mi WSW 3.5 mph - N/A   Scattered Clouds
5:55 AM 30.2 °F 26.7 °F 30.2 °F 100% 29.67 in 4.0 mi WSW 3.5 mph - N/A   Clear
6:15 AM 30.2 °F 24.3 °F 30.2 °F 100% 29.67 in 5.0 mi West 5.8 mph - N/A   Scattered Clouds
6:35 AM 30.2 °F 23.4 °F 30.2 °F 100% 29.67 in 5.0 mi West 6.9 mph - N/A   Scattered Clouds
6:55 AM 30.2 °F 24.3 °F 30.2 °F 100% 29.66 in 5.0 mi West 5.8 mph - N/A   Mostly Cloudy
7:15 AM 30.2 °F 24.3 °F 30.2 °F 100% 29.66 in 5.0 mi West 5.8 mph - N/A   Overcast
7:35 AM 30.2 °F 24.3 °F 30.2 °F 100% 29.66 in 5.0 mi West 5.8 mph - N/A   Scattered Clouds
7:55 AM 32.0 °F 27.5 °F 30.2 °F 93% 29.65 in 5.0 mi West 4.6 mph - N/A   Clear
8:15 AM 32.0 °F 25.6 °F 32.0 °F 100% 29.65 in 5.0 mi West 6.9 mph - N/A   Clear
8:35 AM 32.0 °F 25.6 °F 32.0 °F 100% 29.65 in 7.0 mi West 6.9 mph - N/A   Mostly Cloudy
8:55 AM 32.0 °F 26.4 °F 32.0 °F 100% 29.65 in 7.0 mi WSW 5.8 mph - N/A   Overcast
9:15 AM 32.0 °F 25.6 °F 32.0 °F 100% 29.64 in 10.0 mi West 6.9 mph - N/A   Overcast
9:35 AM 33.8 °F 25.8 °F 30.2 °F 87% 29.64 in 10.0 mi West 10.4 mph - N/A   Mostly Cloudy
9:55 AM 33.8 °F 25.3 °F 30.2 °F 87% 29.64 in 10.0 mi West 11.5 mph - N/A   Mostly Cloudy
10:15 AM 33.8 °F 23.5 °F 28.4 °F 81% 29.65 in 10.0 mi West 16.1 mph 21.9 mph N/A   Mostly Cloudy
10:35 AM 32.0 °F 23.6 °F 30.2 °F 93% 29.65 in 1.8 mi West 10.4 mph - N/A Snow Light Snow
10:55 AM 32.0 °F 23.6 °F 30.2 °F 93% 29.65 in 5.0 mi West 10.4 mph - N/A Snow Light Snow
11:15 AM 32.0 °F 23.0 °F 30.2 °F 93% 29.65 in 3.0 mi West 11.5 mph - N/A Snow Light Snow
11:35 AM 32.0 °F 24.2 °F 30.2 °F 93% 29.65 in 7.0 mi West 9.2 mph - N/A   Overcast
11:55 AM 33.8 °F 26.4 °F 28.4 °F 81% 29.65 in 7.0 mi WNW 9.2 mph 20.7 mph N/A Snow Light Snow
12:15 PM 32.0 °F 22.1 °F 28.4 °F 87% 29.65 in 7.0 mi West 13.8 mph 18.4 mph N/A Snow Light Snow
12:35 PM 33.8 °F 24.8 °F 28.4 °F 81% 29.65 in 4.0 mi West 12.7 mph 18.4 mph N/A Snow Light Snow
12:55 PM 33.8 °F 25.3 °F 28.4 °F 81% 29.65 in 10.0 mi West 11.5 mph 20.7 mph N/A   Mostly Cloudy
1:15 PM 35.6 °F 25.5 °F 26.6 °F 70% 29.65 in 10.0 mi WNW 17.3 mph 23.0 mph N/A   Overcast
1:35 PM 32.0 °F 24.2 °F 28.4 °F 87% 29.66 in 0.5 mi NW 9.2 mph 23.0 mph N/A Snow Light Snow
1:55 PM 33.8 °F 25.3 °F 26.6 °F 75% 29.66 in 10.0 mi NW 11.5 mph 25.3 mph N/A   Mostly Cloudy
2:15 PM 35.6 °F 26.2 °F 23.0 °F 60% 29.67 in 10.0 mi WNW 15.0 mph 31.1 mph N/A   Scattered Clouds
2:35 PM 35.6 °F 25.5 °F 19.4 °F 52% 29.68 in 10.0 mi NW 17.3 mph 26.5 mph N/A   Scattered Clouds
2:55 PM 33.8 °F 24.3 °F 17.6 °F 52% 29.68 in 10.0 mi NW 13.8 mph 24.2 mph N/A   Mostly Cloudy
3:15 PM 33.8 °F 23.9 °F 17.6 °F 52% 29.69 in 10.0 mi NW 15.0 mph 27.6 mph N/A   Mostly Cloudy
3:35 PM 33.8 °F 24.3 °F 17.6 °F 52% 29.70 in 10.0 mi WNW 13.8 mph 21.9 mph N/A   Overcast
3:55 PM 33.8 °F 23.5 °F 15.8 °F 48% 29.70 in 10.0 mi NW 16.1 mph 28.8 mph N/A   Overcast
4:15 PM 33.8 °F 23.5 °F 14.0 °F 44% 29.71 in 10.0 mi NW 16.1 mph 26.5 mph N/A   Scattered Clouds
4:35 PM 32.0 °F 21.2 °F 12.2 °F 44% 29.72 in 10.0 mi NNW 16.1 mph 21.9 mph N/A   Mostly Cloudy
4:55 PM 32.0 °F 22.5 °F 19.4 °F 60% 29.73 in 10.0 mi NW 12.7 mph 21.9 mph N/A   Mostly Cloudy
5:15 PM 32.0 °F 21.6 °F 14.0 °F 48% 29.74 in 10.0 mi WNW 15.0 mph 29.9 mph N/A   Mostly Cloudy
5:35 PM 32.0 °F 22.5 °F 21.2 °F 64% 29.75 in 10.0 mi NW 12.7 mph 17.3 mph N/A   Scattered Clouds
5:55 PM 32.0 °F 23.0 °F 17.6 °F 55% 29.76 in 10.0 mi NNW 11.5 mph 21.9 mph N/A   Mostly Cloudy
6:15 PM 30.2 °F 19.3 °F 17.6 °F 60% 29.77 in 10.0 mi NNW 15.0 mph 20.7 mph N/A   Mostly Cloudy
6:35 PM 30.2 °F 19.3 °F 17.6 °F 60% 29.78 in 10.0 mi NW 15.0 mph 21.9 mph N/A   Mostly Cloudy
6:55 PM 30.2 °F 21.9 °F 17.6 °F 60% 29.79 in 10.0 mi NNW 9.2 mph 17.3 mph N/A   Scattered Clouds
7:15 PM 28.4 °F 20.4 °F 17.6 °F 64% 29.80 in 10.0 mi NW 8.1 mph 18.4 mph N/A   Scattered Clouds
7:35 PM 28.4 °F 21.2 °F 17.6 °F 64% 29.80 in 10.0 mi NNW 6.9 mph - N/A   Mostly Cloudy
7:55 PM 28.4 °F 17.5 °F 17.6 °F 64% 29.82 in 10.0 mi NNW 13.8 mph 19.6 mph N/A   Scattered Clouds
8:15 PM 26.6 °F 18.2 °F 17.6 °F 69% 29.83 in 10.0 mi NW 8.1 mph 20.7 mph N/A   Scattered Clouds
8:35 PM 26.6 °F 19.1 °F 17.6 °F 69% 29.84 in 10.0 mi NNW 6.9 mph - N/A   Clear
8:55 PM 26.6 °F 17.5 °F 17.6 °F 69% 29.85 in 10.0 mi NW 9.2 mph - N/A   Scattered Clouds
9:15 PM 26.6 °F 17.5 °F 17.6 °F 69% 29.85 in 10.0 mi NNW 9.2 mph - N/A   Mostly Cloudy
9:35 PM 26.6 °F 18.2 °F 15.8 °F 64% 29.86 in 10.0 mi NW 8.1 mph - N/A   Mostly Cloudy
9:55 PM 26.6 °F 17.5 °F 14.0 °F 59% 29.86 in 10.0 mi NNW 9.2 mph - N/A   Mostly Cloudy
10:15 PM 26.6 °F 16.2 °F 12.2 °F 55% 29.87 in 10.0 mi NNW 11.5 mph 17.3 mph N/A   Mostly Cloudy
10:35 PM 26.6 °F 19.1 °F 12.2 °F 55% 29.88 in 10.0 mi NNW 6.9 mph 17.3 mph N/A   Mostly Cloudy
10:55 PM 24.8 °F 15.3 °F 10.4 °F 54% 29.89 in 10.0 mi NNW 9.2 mph 17.3 mph N/A   Scattered Clouds
11:15 PM 23.0 °F 14.7 °F 14.0 °F 68% 29.89 in 10.0 mi NW 6.9 mph - N/A   Clear
11:35 PM 23.0 °F 13.9 °F 10.4 °F 59% 29.90 in 10.0 mi WNW 8.1 mph - N/A   Clear
11:55 PM 23.0 °F 13.1 °F 12.2 °F 63% 29.90 in 10.0 mi NNW 9.2 mph 16.1 mph N/A   Scattered Clouds